Wind_Speed
87 90 90 91 95 96 94 99 103 98 99 102 101 103 106 108 109 110 108 106 107 109 106 99 100 97 98 103 101 105 109 113 108 100 100 95 92 91 91 92 96 100 99
94 95 98 102 103 100 99 100 103 103 104 105 108 113 111 111 112 114 112 115 117 107 100 96 99 101 103 105 107 110 112 105 103 95 95 92 92 92 93 95 98 101 100
102 103 100 106 105 107 107 106 108 109 111 114 115 114 117 113 113 111 108 113 103 102 99 97 100 101 105 107 105 107 105 100 97 92 89 87 90 94 95 100 100 101 101
102 102 103 108 112 109 111 116 118 116 117 117 118 117 118 112 109 106 105 102 96 95 100 100 101 105 106 107 102 100 96 94 91 89 87 86 89 96 97 98 96 100 97
106 106 107 114 118 121 118 114 119 120 117 115 113 112 106 105 106 103 106 102 100 96 99 99 100 103 103 99 95 94 94 90 91 91 91 90 88 90 97 98 94 93 95
97 97 104 112 118 115 106 100 103 107 106 110 107 106 101 99 102 106 102 101 103 101 103 101 101 95 92 92 91 92 92 91 92 92 91 88 90 91 91 93 94 91 83
102 101 99 100 101 100 102 105 104 105 106 106 112 109 104 105 108 110 108 108 108 108 102 98 93 91 90 88 91 93 95 95 92 88 87 88 84 86 84 87 92 91 88
110 107 107 110 108 108 114 119 111 110 110 111 115 115 112 112 116 114 112 108 109 104 97 96 94 93 94 92 90 90 91 92 89 88 85 82 83 84 88 86 85 90 95
122 117 122 119 115 116 120 118 120 122 124 126 124 119 118 117 121 116 112 107 105 104 104 101 99 97 93 89 85 83 83 85 85 83 80 79 79 81 85 83 88 97 98
126 124 117 117 118 123 117 117 125 125 129 123 122 124 123 122 117 108 107 107 107 107 105 103 98 94 90 84 81 80 78 78 78 78 79 78 79 82 87 91 98 99 96
112 112 111 111 112 112 109 114 115 114 113 112 112 114 112 112 113 110 108 108 108 107 105 103 99 93 87 83 80 77 73 73 76 75 75 78 78 82 85 93 102 96 87
113 112 111 111 110 110 109 109 111 109 108 107 107 106 105 106 105 107 108 108 109 105 105 102 99 93 86 82 81 77 71 68 67 69 69 72 73 78 85 95 101 98 90
111 110 107 106 109 109 110 111 110 108 108 109 109 108 106 107 107 110 109 108 109 106 103 101 98 94 91 84 80 75 71 67 64 61 68 70 74 75 83 94 99 97 90
109 111 109 109 109 110 108 108 109 109 109 110 108 109 107 108 109 107 109 110 108 104 101 97 94 94 94 92 80 70 68 66 64 65 70 73 77 78 87 94 94 88 79
103 108 107 108 108 108 108 106 108 107 106 107 109 107 105 104 106 108 106 105 107 105 104 101 100 99 99 95 85 79 72 70 66 71 72 73 75 80 89 86 85 76 71
103 105 104 105 103 103 104 104 103 104 104 103 105 105 104 106 102 106 108 106 112 110 107 107 107 106 102 95 85 78 71 69 69 74 75 75 77 83 76 80 76 69 67
102 102 102 102 99 102 101 101 102 101 102 102 103 105 107 107 109 113 112 113 110 112 110 109 109 108 104 96 89 82 77 73 72 77 78 76 82 74 73 73 69 66 62
100 100 99 96 94 96 96 95 98 93 95 97 101 102 103 101 105 107 110 108 105 105 102 107 105 106 103 99 93 86 81 77 80 83 79 80 76 67 68 68 64 60 56
96 98 98 96 94 94 93 94 89 92 92 90 91 94 97 101 104 105 108 106 102 104 101 102 101 101 99 97 94 88 82 78 82 81 80 79 67 63 64 62 58 55 51
93 93 91 90 91 90 89 91 89 90 91 91 93 95 97 98 101 104 103 98 99 101 98 98 99 99 97 94 91 85 80 79 78 77 79 73 65 60 58 54 53 51 47
85 85 87 87 88 89 88 89 89 92 93 93 93 94 95 95 98 99 95 94 98 98 98 97 96 94 93 89 84 82 80 78 76 75 75 69 60 56 55 49 49 47 43
83 85 85 85 85 86 87 88 89 91 91 89 87 88 91 94 93 92 92 94 95 96 95 94 92 90 88 84 82 80 75 72 71 70 70 64 55 53 50 47 45 40 40
76 77 78 80 82 84 87 87 88 88 87 86 86 86 87 88 89 90 89 90 92 92 91 90 89 87 83 80 77 74 71 68 68 66 64 63 54 50 46 44 39 37 37
70 72 74 75 77 78 79 80 81 81 81 80 80 81 83 85 85 86 86 86 86 85 85 84 83 80 77 74 70 68 67 67 66 64 57 59 52 49 43 40 36 36 35
61 61 62 64 64 66 67 68 70 72 72 74 76 77 77 78 78 79 79 78 77 77 77 77 75 73 71 67 66 65 66 65 62 56 54 53 47 45 40 37 34 35 34
56 58 58 59 59 60 62 63 65 66 67 67 69 69 70 72 73 73 72 72 72 72 72 72 71 69 66 65 65 64 65 64 60 54 49 45 43 41 38 35 34 34 35
Wind_Direction
272 274 271 275 279 279 277 278 278 280 282 283 283 284 284 284 284 285 286 289 288 288 287 288 286 285 286 285 284 286 287 287 287 289 286 283 281 280 280 280 278 278 279
273 277 272 275 273 275 276 276 275 278 280 280 281 281 284 283 284 284 285 286 287 284 287 287 286 284 286 288 290 287 288 290 288 285 282 282 281 279 278 278 278 279 281
269 273 274 274 275 275 275 276 277 278 278 280 281 281 282 282 283 283 284 286 283 281 287 288 288 288 287 289 287 289 288 288 287 286 282 280 279 279 279 277 279 279 279
269 270 272 272 274 276 277 274 275 276 277 276 277 278 280 278 279 279 281 283 282 284 287 288 289 290 291 287 286 287 287 285 285 283 281 279 279 278 278 277 276 276 277
268 269 266 269 271 272 278 274 272 273 274 276 277 278 281 281 280 285 285 285 287 287 290 289 292 294 290 288 287 287 286 285 283 282 282 283 281 278 276 277 279 276 277
272 270 266 266 267 271 273 274 274 274 277 279 280 284 285 285 284 284 286 288 292 294 294 294 293 290 288 288 287 286 285 284 284 285 285 283 280 281 282 281 281 280 277
274 273 272 274 276 276 281 284 283 283 285 285 286 286 285 288 290 292 293 294 292 294 294 293 293 291 289 288 287 287 287 287 288 288 286 286 284 283 281 279 278 278 274
281 282 283 283 283 283 284 284 287 288 287 286 288 289 290 289 291 291 292 292 293 293 292 293 292 291 291 289 288 288 287 287 288 287 288 286 284 281 279 277 276 274 275
277 276 278 277 278 280 280 281 286 286 285 286 287 288 288 290 291 290 290 291 291 293 291 292 291 291 289 289 288 286 287 287 289 290 289 288 286 285 282 280 277 274 273
271 276 275 276 277 279 278 279 280 281 282 283 284 284 284 284 287 287 289 291 290 290 291 291 292 291 290 290 289 288 290 291 291 292 290 289 289 288 286 284 280 278 282
271 272 273 274 275 275 277 277 277 277 277 278 280 282 283 285 286 287 287 288 288 290 291 291 291 291 291 291 290 291 290 290 291 290 290 290 291 288 287 284 284 286 288
270 271 271 272 273 274 274 275 276 277 278 279 280 281 282 283 285 285 286 287 288 290 290 291 291 293 293 294 294 291 290 290 290 290 291 292 291 288 284 283 283 287 290
271 271 272 272 272 271 272 273 274 277 279 279 280 282 283 283 284 284 285 286 288 290 291 291 293 296 297 295 295 293 293 294 291 291 296 292 294 290 283 281 283 288 291
268 269 269 269 270 271 272 274 275 276 276 277 279 280 281 283 285 286 286 288 289 289 290 291 293 294 296 298 300 297 297 299 297 297 299 299 296 291 285 282 284 287 288
267 267 267 267 268 269 271 272 273 273 274 275 277 279 280 281 281 283 284 286 287 289 291 294 294 295 296 299 301 303 303 302 300 301 300 296 291 284 282 285 285 288 288
261 261 261 262 263 264 266 268 269 270 271 272 274 275 274 276 277 279 281 283 284 287 289 289 292 293 296 299 303 301 299 301 302 305 301 295 288 284 286 286 288 288 286
263 262 262 261 261 261 263 265 265 267 268 269 271 273 274 274 274 276 278 280 283 285 287 288 288 290 293 298 300 301 302 305 304 304 300 294 285 288 288 286 287 287 285
264 267 268 267 267 268 266 264 265 268 264 267 270 274 275 275 274 276 278 280 282 285 287 285 288 289 292 295 297 299 303 303 304 303 298 292 286 290 288 286 288 285 284
267 267 268 269 270 269 271 272 272 272 273 273 273 273 274 275 276 277 279 282 285 286 285 286 288 289 291 293 295 298 300 301 302 300 297 289 291 291 288 287 288 283 282
265 266 268 269 271 271 269 269 269 269 269 269 268 270 271 272 273 275 278 281 282 284 286 286 287 288 289 291 294 296 299 300 299 298 292 289 293 289 286 287 285 283 279
265 266 266 264 264 265 266 265 266 267 267 267 268 269 271 273 274 275 280 281 281 284 285 285 285 287 288 291 294 297 297 297 296 294 289 290 289 287 287 285 282 278 274
260 261 263 264 265 266 267 267 267 267 268 269 270 270 271 272 274 277 278 279 280 280 281 282 285 286 289 292 294 295 295 294 293 290 289 290 289 288 285 282 278 272 267
263 264 264 263 262 262 264 265 267 268 270 271 271 270 271 273 274 273 275 276 277 278 280 282 284 286 288 291 292 292 291 290 288 288 289 289 290 285 282 279 273 267 261
263 263 262 263 263 263 263 263 265 266 266 268 270 270 270 270 271 273 274 275 277 278 280 281 283 285 287 288 288 287 286 285 285 285 286 285 285 282 279 274 268 260 253
265 265 263 262 262 263 264 264 265 266 266 265 266 267 268 270 271 272 274 276 277 278 279 281 282 284 284 286 285 284 285 283 283 284 283 283 281 277 274 269 262 252 246
265 264 264 263 263 263 263 263 263 264 265 266 267 268 268 269 271 272 274 275 276 277 278 279 281 282 283 282 282 283 282 281 282 283 280 278 276 272 269 263 254 243 238
Height
10546 10542 10543 10542 10536 10532 10527 10522 10518 10514 10510 10507 10499 10495 10491 10486 10482 10477 10472 10467 10462 10457 10451 10443 10437 10431 10424 10418 10412 10405 10398 10391 10394 10392 10383 10375 10369 10361 10353 10351 10347 10341 10339
10521 10519 10516 10515 10510 10507 10501 10494 10489 10487 10483 10480 10475 10467 10463 10457 10452 10449 10445 10441 10435 10430 10424 10416 10410 10403 10395 10387 10380 10373 10366 10358 10355 10360 10351 10345 10338 10331 10326 10324 10316 10310 10306
10492 10492 10490 10486 10479 10473 10470 10465 10460 10456 10455 10452 10447 10441 10436 10430 10425 10423 10417 10412 10406 10402 10395 10386 10378 10371 10364 10357 10349 10342 10336 10330 10323 10323 10322 10320 10312 10297 10297 10289 10287 10280 10275
10465 10466 10463 10456 10448 10444 10440 10435 10430 10427 10425 10419 10415 10412 10408 10403 10398 10393 10390 10385 10376 10370 10362 10355 10348 10341 10334 10328 10320 10314 10308 10302 10294 10290 10291 10292 10285 10268 10265 10260 10261 10249 10249
10435 10437 10433 10423 10418 10413 10412 10400 10394 10392 10390 10386 10384 10382 10376 10374 10368 10364 10358 10352 10345 10337 10329 10324 10317 10311 10305 10299 10292 10286 10280 10273 10266 10263 10260 10257 10248 10242 10231 10224 10228 10225 10219
10402 10400 10395 10391 10386 10384 10379 10366 10365 10359 10357 10354 10352 10348 10346 10340 10336 10330 10323 10317 10309 10304 10298 10293 10290 10282 10276 10270 10264 10258 10250 10241 10236 10234 10229 10224 10215 10207 10202 10198 10192 10190 10196
10359 10361 10361 10357 10354 10349 10344 10338 10334 10331 10328 10323 10320 10314 10312 10306 10300 10294 10290 10286 10281 10273 10267 10262 10259 10253 10247 10242 10235 10226 10218 10209 10207 10205 10199 10189 10186 10172 10170 10167 10158 10157 10157
10325 10325 10323 10321 10322 10318 10316 10311 10308 10304 10296 10291 10285 10282 10283 10276 10269 10264 10261 10258 10250 10243 10238 10233 10229 10224 10220 10215 10209 10199 10188 10178 10175 10170 10164 10157 10147 10143 10135 10138 10134 10128 10120
10299 10294 10291 10290 10290 10292 10288 10283 10280 10274 10270 10269 10257 10253 10249 10243 10239 10234 10233 10228 10220 10215 10210 10203 10202 10198 10192 10188 10182 10174 10165 10154 10146 10138 10132 10124 10115 10108 10099 10101 10093 10088 10088
10262 10264 10264 10261 10261 10262 10261 10255 10253 10246 10239 10234 10231 10228 10223 10214 10212 10206 10206 10200 10193 10189 10183 10175 10172 10170 10163 10158 10153 10147 10142 10131 10120 10112 10103 10096 10087 10078 10066 10055 10049 10048 10045
10230 10231 10230 10230 10231 10231 10230 10226 10221 10214 10212 10208 10207 10200 10196 10187 10186 10182 10180 10171 10164 10158 10151 10144 10141 10139 10135 10129 10125 10119 10113 10107 10097 10091 10084 10072 10063 10052 10039 10024 10011 10008 10010
10197 10198 10196 10197 10196 10195 10192 10191 10186 10185 10181 10179 10175 10171 10169 10164 10161 10153 10148 10142 10135 10131 10124 10118 10111 10109 10103 10099 10095 10091 10087 10082 10075 10067 10058 10047 10041 10028 10014 9999 9988 9981 9977
10156 10158 10160 10163 10161 10160 10159 10157 10156 10155 10152 10146 10142 10140 10138 10133 10131 10126 10120 10115 10106 10101 10094 10088 10081 10077 10074 10070 10065 10061 10059 10054 10046 10037 10032 10023 10012 10002 9990 9977 9966 9956 9953
10119 10119 10122 10123 10125 10123 10125 10125 10123 10123 10121 10116 10112 10108 10107 10104 10099 10091 10086 10083 10077 10074 10066 10062 10056 10049 10043 10037 10034 10031 10029 10026 10019 10012 10004 9994 9985 9973 9959 9949 9946 9937 9934
10083 10084 10086 10087 10088 10089 10092 10092 10089 10089 10087 10083 10081 10082 10078 10075 10069 10064 10060 10055 10048 10042 10036 10033 10027 10021 10015 10010 10006 10002 9998 9995 9990 9983 9976 9967 9957 9946 9933 9925 9917 9914 9909
10050 10051 10053 10055 10057 10058 10059 10060 10060 10056 10057 10056 10054 10054 10051 10045 10043 10037 10033 10029 10018 10014 10011 10007 10002 9996 9990 9985 9981 9975 9972 9968 9961 9953 9943 9935 9928 9918 9914 9899 9894 9892 9886
10018 10020 10022 10025 10029 10031 10033 10033 10033 10031 10026 10028 10029 10024 10020 10020 10015 10010 10007 10000 9995 9985 9985 9982 9978 9970 9964 9959 9955 9950 9944 9939 9935 9925 9917 9907 9898 9895 9887 9878 9874 9869 9864
9982 9986 9989 9993 9995 9997 10003 10005 10004 10002 10001 10004 9999 9992 9987 9987 9982 9977 9972 9970 9967 9960 9962 9955 9948 9944 9939 9934 9931 9926 9922 9916 9909 9899 9890 9879 9875 9875 9865 9856 9853 9849 9845
9949 9953 9957 9961 9963 9965 9969 9968 9970 9970 9969 9969 9967 9962 9960 9955 9949 9948 9942 9939 9936 9932 9933 9928 9923 9918 9915 9909 9906 9903 9900 9894 9886 9876 9864 9855 9856 9852 9843 9837 9833 9828 9827
9918 9923 9928 9929 9928 9930 9934 9935 9936 9936 9937 9938 9935 9932 9931 9929 9927 9920 9917 9916 9910 9906 9907 9902 9897 9893 9889 9886 9883 9880 9874 9870 9863 9853 9840 9835 9835 9831 9826 9821 9815 9812 9810
9890 9892 9893 9896 9900 9901 9902 9904 9905 9906 9905 9908 9909 9904 9900 9905 9900 9894 9892 9889 9883 9882 9880 9877 9872 9868 9865 9863 9859 9855 9852 9845 9839 9830 9819 9818 9816 9811 9806 9804 9800 9797 9796
9862 9863 9867 9868 9871 9871 9871 9871 9873 9873 9874 9878 9876 9878 9876 9874 9872 9868 9865 9862 9860 9858 9856 9852 9848 9846 9842 9839 9836 9831 9827 9821 9815 9809 9800 9797 9796 9791 9789 9786 9784 9783 9783
9837 9839 9841 9841 9841 9842 9842 9844 9844 9843 9846 9846 9848 9848 9845 9844 9841 9839 9841 9840 9836 9834 9831 9828 9825 9822 9819 9816 9812 9806 9801 9798 9792 9791 9784 9777 9776 9774 9773 9769 9769 9769 9770
9809 9811 9813 9815 9816 9816 9817 9817 9818 9818 9818 9817 9816 9815 9815 9814 9815 9815 9814 9814 9813 9809 9806 9803 9799 9797 9796 9793 9788 9784 9779 9776 9772 9770 9768 9760 9758 9756 9757 9755 9756 9756 9757
9785 9787 9788 9789 9791 9792 9792 9793 9793 9792 9792 9791 9792 9792 9792 9791 9791 9790 9791 9790 9788 9785 9781 9778 9775 9773 9770 9768 9763 9759 9755 9751 9751 9751 9749 9744 9742 9741 9741 9741 9742 9744 9745
9763 9764 9765 9766 9767 9768 9768 9768 9769 9769 9769 9770 9770 9769 9769 9768 9769 9768 9767 9765 9763 9760 9758 9755 9753 9750 9748 9745 9742 9738 9733 9730 9731 9732 9731 9729 9726 9727 9727 9728 9729 9731 9733